Location: Roanoke
(37.2710°N, 79.9420°W)
Time: 08:10:48
(UTC-05:00)

Courier 1B Rocket - Visible Passes

Search period start: 15 November 2019 00:00
Search period end: 25 November 2019 00:00
Orbit: 920 x 1202 km, 28.2° (Epoch: 14 November)

Date Brightness Start Highest point End Pass type
(mag) Time Alt. Az. Time Alt. Az. Time Alt. Az.
15 Nov 6.1 18:50:47 10° WSW 18:57:58 43° S 19:02:01 25° SE visible
15 Nov 7.0 20:44:26 10° WSW 20:48:23 25° SW 20:48:23 25° SW visible
16 Nov 6.3 17:49:46 10° WSW 17:56:49 43° S 18:04:06 10° ESE visible
16 Nov 6.3 19:43:06 10° WSW 19:50:05 37° SSW 19:51:12 35° S visible
17 Nov 6.3 18:41:55 10° WSW 18:48:57 41° S 18:54:03 19° SE visible
17 Nov 7.0 20:35:53 10° WSW 20:40:26 24° SW 20:40:26 24° SW visible
18 Nov 6.3 17:40:53 10° WSW 17:47:50 43° S 17:55:05 10° ESE visible
18 Nov 6.6 19:34:25 10° WSW 19:41:01 32° SSW 19:43:21 27° SSE visible
19 Nov 6.5 18:33:10 10° WSW 18:39:56 36° SSW 18:46:21 12° SE visible
19 Nov 7.2 20:27:39 10° WSW 20:32:45 20° SSW 20:32:45 20° SSW visible
20 Nov 6.5 17:32:05 10° WSW 17:38:51 40° S 17:45:56 10° ESE visible
20 Nov 7.0 19:25:56 10° WSW 19:31:55 25° SSW 19:35:52 17° SSE visible
21 Nov 6.8 18:24:33 10° WSW 18:30:54 31° SSW 18:37:29 10° SE visible
21 Nov 7.5 20:20:05 10° WSW 20:23:46 14° SSW 20:25:28 13° SSW visible
22 Nov 6.7 17:23:23 10° WSW 17:29:52 35° SSW 17:36:39 10° SE visible
22 Nov 7.4 19:17:48 10° WSW 19:22:49 19° SSW 19:27:58 10° SSE visible
23 Nov 7.2 18:16:09 10° WSW 18:21:50 24° SSW 18:27:45 10° SSE visible
24 Nov 7.7 19:10:26 10° SW 19:13:42 13° SSW 19:17:02 10° S visible
